CAPE
0 0 0 0 0 0 0 0 0 0 0 0 83 126 260 1 0 35 16 39 219 809 509 445 232 108 111 9 247 387 613 428 320 104 36 21 5 0 0 0 0 0 0 0
0 0 0 0 0 0 14 189 2 0 0 0 0 67 173 3 82 255 297 263 615 665 576 383 58 1 38 6 157 399 747 550 411 83 48 44 1 0 0 0 0 0 0 0
0 2 0 0 12 121 391 317 115 1 0 2 0 40 92 36 19 74 137 196 822 8 583 216 61 40 0 1 274 828 1049 844 626 175 96 44 0 0 0 0 0 0 0 0
0 0 0 0 537 330 522 500 205 3 6 30 0 0 0 7 292 243 14 118 419 8 750 492 334 220 246 157 90 194 317 283 291 261 127 38 13 0 0 0 0 0 0 0
2 0 0 314 634 168 209 568 384 99 190 195 67 6 8 10 20 16 18 68 718 565 411 630 268 57 58 95 43 0 0 0 0 7 136 98 54 1 0 0 0 0 0 0
0 2 2 0 39 473 11 0 431 306 78 255 152 8 78 80 925 976 1011 549 435 487 555 327 55 103 291 345 37 0 0 1 2 0 0 70 150 0 0 0 0 0 0 0
0 0 0 0 362 39 0 0 370 282 117 261 148 38 28 669 458 423 236 121 139 45 42 19 0 0 53 0 0 1 0 0 0 0 1 17 1 0 0 0 0 0 0 0
0 0 0 808 1468 159 0 387 88 80 11 58 29 1083 1330 557 376 182 29 1 1 0 0 0 0 0 2 0 1 3 0 0 0 1 0 1 0 0 0 0 0 0 0 0
0 0 299 250 778 752 43 590 203 61 25 53 484 789 987 532 150 61 34 1 1 0 0 1 0 0 0 1 0 1 0 0 1 1 0 0 0 0 0 0 0 0 0 0
246 117 72 8 497 1084 1238 1401 1359 349 130 463 236 685 350 260 37 13 0 0 0 0 0 1 1 1 0 1 0 8 8 8 0 0 0 0 0 0 0 0 0 0 0 0
106 114 23 1 30 203 739 436 1142 780 355 483 526 351 256 125 15 0 0 0 0 0 0 1 1 1 1 6 1 0 2 0 0 0 0 0 0 0 0 0 0 0 0 0
61 3 34 36 4 185 888 1296 1025 785 612 541 410 219 132 70 6 0 0 0 0 0 0 0 0 0 0 0 0 0 0 0 0 0 0 0 0 0 0 0 0 0 0 0
13 0 29 224 245 111 914 1155 941 732 523 387 147 101 45 45 17 7 0 0 0 0 0 0 0 0 0 0 0 0 0 0 0 0 0 0 0 0 0 0 0 0 0 0
0 1 38 10 47 488 887 881 529 340 226 178 63 3 11 26 2 0 0 0 0 0 0 0 0 0 0 0 0 0 0 0 0 0 0 0 0 0 0 0 0 0 0 0
0 0 1 0 0 126 546 516 379 325 195 133 45 30 1 0 0 0 0 0 0 0 0 0 0 0 0 0 0 0 0 0 0 0 0 0 0 0 0 0 0 0 0 0
0 0 0 0 0 0 39 253 303 288 163 86 25 7 1 0 0 0 0 0 0 0 0 0 1 1 0 0 0 0 0 0 0 0 0 0 0 0 0 0 0 0 0 0
0 0 0 0 0 0 0 0 0 0 215 131 61 9 0 0 0 0 0 0 0 0 0 0 0 0 0 0 0 0 0 0 0 0 0 0 0 0 0 0 0 0 0 0
0 0 0 0 0 0 0 0 0 0 7 61 109 59 24 3 0 0 0 0 0 0 0 0 0 0 0 0 0 0 0 0 0 0 0 0 0 0 0 0 0 0 0 0
0 0 0 0 0 0 0 0 0 0 0 41 112 110 99 35 0 0 0 0 0 0 0 0 0 0 0 0 0 0 0 0 0 0 0 0 0 0 0 0 0 0 0 0
0 0 0 0 0 0 0 0 0 0 0 6 86 72 65 23 0 0 0 0 0 1 0 0 0 0 0 0 0 0 0 0 0 0 0 0 0 0 0 0 0 0 0 0
0 0 0 0 0 0 0 0 0 0 0 0 21 40 34 4 0 0 0 0 0 0 0 0 0 0 0 0 0 0 0 0 0 0 0 0 0 0 0 0 0 0 0 0
0 0 0 0 0 0 0 0 0 0 0 0 0 11 16 15 3 0 0 0 0 0 0 0 0 0 0 0 0 0 0 0 0 0 0 0 0 0 0 0 0 0 0 0
0 0 0 0 0 0 0 0 0 0 0 0 0 0 7 13 9 0 4 0 0 0 0 0 0 0 0 0 0 0 0 0 0 0 0 0 0 0 0 0 0 0 0 0
0 0 2 1 6 1 0 0 0 0 0 1 1 0 0 0 1 0 0 0 0 0 0 0 0 0 0 0 0 0 0 0 0 0 0 0 0 0 0 0 0 0 0 0
1 0 0 0 0 0 0 0 0 0 0 0 0 1 0 0 0 0 0 0 0 0 0 0 0 0 0 0 0 0 0 0 0 0 0 0 0 0 0 0 0 0 0 0
10 0 5 3 3 1 0 0 0 0 0 0 1 1 1 1 1 0 0 0 0 0 0 0 0 0 0 0 0 0 0 0 0 0 0 0 0 0 0 0 0 0 0 0
0 0 1 1 2 1 0 0 0 0 2 2 2 2 6 1 0 0 0 0 0 0 0 0 0 0 0 0 0 0 0 0 0 0 0 0 0 0 0 0 0 0 0 0
CIN
0 0 0 0 0 0 0 0 0 0 0 0 -482 -527 -472 -138 0 -597 -660 -646 -561 -424 -471 -492 -507 -526 -590 -620 -295 -270 -221 -205 -184 -282 -293 -309 -291 0 0 0 0 0 0 0
0 0 0 0 0 0 -120 -210 -3 -5 -5 0 0 -738 -618 -727 -765 -537 -445 -609 -470 -379 -351 -362 -492 -635 -555 -552 -338 -216 -177 -208 -189 -268 -284 -284 -115 0 0 0 0 0 0 0
0 -102 0 0 -175 -201 -297 -497 -491 -51 0 -609 -56 -629 -601 -643 -676 -624 -582 -602 -394 -189 -412 -208 -162 -321 0 -131 -271 -131 -97 -149 -146 -220 -295 -295 -29 0 0 0 0 0 0 0
-7 0 0 0 -325 -283 -378 -443 -580 -359 -401 -725 0 0 0 -379 -504 -505 -303 -548 -348 -212 -278 -208 -143 -125 -231 -349 -358 -326 -298 -290 -221 -209 -275 -301 -292 -11 0 0 0 0 0 0
-179 0 0 -225 -200 -202 -146 -173 -459 -581 -550 -547 -605 -386 -476 -741 -675 -179 -408 -474 -307 -247 -312 -235 -303 -393 -443 -422 -341 0 0 0 0 -47 -257 -236 -222 -17 0 0 0 0 0 0
0 -57 -122 0 -218 -234 -101 0 -370 -444 -447 -437 -488 -91 -327 -612 -301 -344 -338 -415 -345 -288 -292 -350 -452 -372 -315 -343 -423 0 0 0 0 0 0 -227 -148 0 0 0 0 0 0 0
0 0 0 0 -312 -267 0 0 -357 -415 -430 -406 -342 -516 -699 -442 -444 -538 -601 -597 -537 -394 -324 -340 0 -243 -295 0 0 0 0 0 0 0 0 -90 -61 0 0 0 0 0 0 0
0 0 0 -276 -150 -110 0 -369 -452 -452 -519 -428 -545 -278 -262 -452 -524 -591 -713 -378 -280 0 0 0 0 0 0 0 0 0 0 0 0 0 0 0 0 0 0 0 0 0 0 0
0 0 -294 -414 -306 -376 -197 -240 -348 -401 -464 -451 -297 -269 -226 -366 -477 -586 -639 -72 0 0 0 0 0 0 0 0 0 0 0 0 0 0 0 0 0 0 0 0 0 0 0 0
-197 -277 -281 -358 -298 -239 -229 -177 -200 -325 -368 -285 -358 -316 -390 -358 -476 -451 0 0 0 0 0 0 0 0 0 0 0 0 0 0 0 0 0 0 0 0 0 0 0 0 0 0
-191 -214 -271 -23 -373 -363 -218 -289 -208 -242 -243 -201 -278 -343 -412 -370 -444 0 0 0 0 0 0 0 0 0 0 0 0 0 0 0 0 0 0 0 0 0 0 0 0 0 0 0
-127 -86 -266 -255 -236 -280 -136 -107 -149 -176 -213 -260 -280 -301 -366 -410 -361 -53 0 0 0 0 0 0 0 0 0 0 0 0 0 0 0 0 0 0 0 0 0 0 0 0 0 0
-147 0 -257 -137 -210 -285 -108 -97 -116 -125 -186 -241 -328 -329 -331 -377 -424 -431 0 0 0 0 0 0 0 0 0 0 0 0 0 0 0 0 0 0 0 0 0 0 0 0 0 0
-10 -9 -133 -208 -154 -142 -93 -122 -166 -209 -246 -235 -240 -294 -296 -308 -178 0 0 0 0 0 0 0 0 0 0 0 0 0 0 0 0 0 0 0 0 0 0 0 0 0 0 0
0 0 -82 0 0 -157 -132 -131 -132 -144 -185 -230 -293 -263 -184 0 0 0 0 0 0 0 0 0 0 0 0 0 0 0 0 0 0 0 0 0 0 0 0 0 0 0 0 0
0 0 0 0 0 -22 -148 -102 -94 -121 -169 -191 -212 -239 -289 0 0 0 0 0 0 0 0 0 -16 -15 0 0 0 0 0 0 0 0 0 0 0 0 0 0 0 0 0 0
0 0 0 0 0 0 0 0 0 0 -96 -141 -159 -211 0 0 0 0 0 0 0 0 0 0 0 0 0 0 0 0 0 0 0 0 0 0 0 0 0 0 0 0 0 0
0 0 0 0 0 0 0 0 0 0 -91 -122 -135 -148 -147 -45 0 0 0 0 0 0 0 0 0 0 0 0 0 0 0 0 0 0 0 0 0 0 0 0 0 0 0 0
0 0 0 0 0 0 0 0 0 0 0 -156 -131 -136 -151 -170 0 0 0 0 0 0 -2 0 0 0 0 0 0 0 0 0 0 0 0 0 0 0 0 0 0 0 0 0
0 0 0 0 0 0 0 0 0 0 0 -201 -170 -174 -171 -233 0 0 0 0 0 -54 0 0 0 0 0 0 0 0 0 0 0 0 0 0 0 0 0 0 0 0 0 0
0 0 0 0 0 0 0 0 0 0 0 0 -153 -163 -178 -214 0 0 0 -18 -20 0 0 0 0 0 0 0 0 0 0 0 0 0 0 0 0 0 0 0 0 0 0 0
0 0 0 0 0 0 0 0 0 0 0 0 0 -187 -211 -219 -225 0 0 0 0 0 0 0 0 0 0 0 0 0 0 0 0 0 0 0 0 0 0 0 0 0 0 0
0 0 0 0 0 0 0 0 0 0 0 0 0 0 -174 -228 -204 0 -86 0 0 0 0 0 0 0 0 0 0 0 0 0 0 0 0 0 0 0 0 0 0 0 0 0
0 0 -26 -36 -31 -37 0 0 0 0 0 0 0 0 0 0 0 0 0 0 0 0 0 0 0 0 0 0 0 0 0 0 0 0 0 0 0 0 0 0 0 0 0 0
-64 -31 0 0 0 0 0 0 0 0 0 0 0 0 0 0 0 0 0 0 0 0 0 0 0 0 0 0 0 0 0 0 0 0 0 0 0 0 0 0 0 0 0 0
-32 -7 -23 -10 -3 -5 0 0 0 0 0 0 0 0 0 0 0 0 0 0 0 0 0 0 0 0 0 0 0 0 0 0 0 0 0 0 0 0 0 0 0 0 0 0
0 -12 0 0 0 0 0 0 0 0 0 0 0 0 0 0 0 0 0 0 0 0 0 0 0 0 0 0 0 0 0 0 0 0 0 0 0 0 0 0 0 0 0 0
Wind_Speed
3 5 4 3 3 4 4 5 5 4 5 5 10 8 7 6 8 5 9 6 6 7 6 8 5 5 6 5 5 6 7 7 6 5 5 3 5 5 6 5 5 5 5 6
3 3 4 3 4 4 4 2 1 1 3 7 2 1 3 3 7 8 12 7 10 9 8 9 5 6 7 7 5 3 5 6 5 7 5 4 4 6 6 6 5 6 5 6
3 2 4 5 2 3 5 4 2 1 5 4 2 4 7 6 6 9 10 12 12 5 13 12 3 6 0 2 2 2 2 5 6 5 8 5 4 5 6 6 4 5 6 6
3 3 3 5 4 8 11 2 2 4 2 3 2 3 3 2 3 7 8 8 12 6 8 14 15 6 5 8 5 3 5 5 2 7 8 5 3 5 5 5 5 5 5 5
5 3 3 3 4 3 4 2 5 6 6 6 5 1 6 5 6 5 4 3 3 3 4 8 13 13 13 14 9 5 4 5 4 4 4 7 6 6 5 6 5 4 4 4
3 5 6 6 1 2 4 5 9 6 7 5 2 2 3 5 6 4 5 6 6 4 6 9 10 9 11 8 9 7 6 3 2 2 3 4 8 7 4 4 6 6 6 5
3 3 7 6 5 3 3 10 5 7 5 2 3 3 4 4 7 8 6 7 10 8 8 6 5 5 7 5 5 8 6 5 2 3 3 2 6 5 6 7 7 6 6 4
4 4 6 3 5 3 7 1 3 3 4 1 4 5 5 8 9 7 11 10 8 9 8 7 6 5 8 8 5 5 7 5 3 5 3 2 8 8 8 8 7 5 5 4
5 6 3 4 4 2 3 4 4 4 2 5 3 2 4 7 5 8 7 7 5 7 7 4 6 6 7 5 6 3 6 5 5 5 4 5 6 7 7 6 6 4 3 3
3 4 3 6 6 5 4 2 3 3 2 3 3 2 9 6 4 5 5 4 3 5 6 5 5 7 7 6 6 4 3 3 4 5 5 6 5 4 5 5 5 4 3 4
1 4 4 3 3 3 3 4 6 6 1 4 2 2 9 4 4 5 5 3 4 4 5 6 7 7 5 5 6 6 4 2 4 4 5 6 6 4 4 3 2 4 3 3
3 5 4 2 4 5 1 1 5 5 4 2 2 4 4 5 3 4 5 4 5 5 6 5 6 5 5 5 5 6 3 3 3 3 4 4 4 4 11 8 8 8 6 4
4 3 2 3 5 4 2 5 4 6 6 5 3 4 3 3 3 5 6 6 5 5 6 5 4 5 5 6 6 5 4 4 3 4 4 4 3 3 5 4 8 9 8 5
6 8 5 1 4 4 6 6 5 4 5 5 3 1 2 3 3 5 5 5 6 6 6 5 5 4 5 6 7 6 5 5 4 4 4 4 3 3 3 3 3 1 4 3
5 4 7 4 4 4 3 3 3 3 2 2 3 5 4 5 5 5 4 5 5 5 5 4 5 5 5 7 7 7 5 4 4 3 3 3 3 3 3 3 2 2 1 2
6 7 7 8 6 6 4 3 1 2 4 4 6 7 7 5 5 6 7 7 7 6 6 6 5 5 5 6 6 5 5 8 5 4 3 4 3 4 4 3 2 2 2 3
8 6 4 5 6 3 3 2 3 4 4 5 8 6 5 5 4 5 6 6 6 6 7 7 7 5 5 6 7 4 4 4 8 5 5 5 4 5 4 4 4 4 5 3
8 6 6 5 5 6 5 5 4 4 4 5 6 5 6 7 9 8 7 6 6 5 6 7 6 6 6 5 5 5 4 5 5 6 5 5 5 4 5 6 5 5 4 3
8 7 6 6 4 4 3 4 3 4 5 6 4 8 8 8 7 7 7 6 6 6 6 6 8 7 5 5 6 5 4 4 5 4 4 4 4 3 4 5 5 4 3 3
6 5 4 1 2 2 3 3 6 7 5 5 5 5 6 5 6 6 6 7 9 7 7 7 7 6 5 3 9 5 5 5 5 5 4 4 5 4 3 3 4 4 4 4
6 5 6 5 4 4 4 3 4 6 8 6 5 7 7 5 6 7 6 6 6 5 7 13 8 5 4 3 4 4 5 6 6 6 5 5 5 5 4 5 4 5 6 6
4 5 6 6 6 6 6 6 6 6 7 8 7 6 7 7 9 7 5 6 3 8 5 4 3 6 6 8 5 5 6 7 6 5 5 4 3 5 5 5 6 6 6 6
6 6 7 7 7 7 5 6 7 6 6 6 7 7 7 7 7 8 7 6 6 8 6 4 5 11 11 5 5 6 6 6 5 5 5 5 4 4 4 5 5 5 6 6
7 7 6 5 6 5 5 5 4 2 3 4 5 5 3 5 2 2 1 11 11 11 7 7 10 14 10 6 6 6 5 5 5 5 4 5 5 6 6 6 6 6 5 6
7 6 4 6 5 4 2 2 1 3 3 3 4 4 4 3 3 3 4 6 12 8 6 10 12 11 7 6 5 6 5 4 4 4 5 4 6 6 5 5 5 5 5 4
2 2 2 4 3 2 3 2 1 1 1 2 3 4 3 3 3 6 9 10 8 9 8 6 5 7 5 5 5 6 6 4 4 5 6 5 6 5 5 5 5 4 4 4
4 6 4 4 4 4 3 3 2 2 3 4 4 4 2 5 7 9 11 11 7 7 7 7 6 5 4 4 5 5 4 5 5 5 5 5 5 5 5 4 4 4 5 5
Wind_Direction
147 164 143 117 98 154 157 170 140 246 215 280 214 211 241 307 353 45 152 232 257 160 178 148 178 216 136 162 222 164 156 168 196 139 151 176 126 125 118 115 106 105 93 68
43 77 115 123 34 89 89 110 173 113 233 256 205 143 254 328 334 317 302 294 261 150 140 60 278 214 161 164 205 211 179 172 140 143 152 162 149 151 126 119 121 108 88 85
176 315 111 25 13 102 94 51 135 277 226 258 106 161 222 218 251 279 294 298 267 199 130 108 302 303 267 95 93 130 154 139 143 176 170 166 171 138 137 137 127 109 97 83
136 42 61 255 0 112 111 88 69 96 147 275 203 280 284 226 301 279 279 305 265 294 127 156 178 152 110 82 63 84 98 69 114 163 166 161 160 164 135 138 135 124 106 94
110 108 258 117 224 165 139 218 195 181 182 186 196 4 272 249 246 229 193 257 266 9 114 135 134 143 138 131 137 117 58 63 36 357 156 170 185 170 146 139 119 97 100 91
96 114 180 236 308 91 110 309 182 196 225 202 214 11 188 151 202 182 299 301 140 144 112 131 145 160 147 152 139 111 105 70 340 28 287 216 178 156 127 102 109 105 87 59
129 143 285 254 287 189 101 237 169 167 216 217 220 208 286 103 120 80 58 32 67 75 79 58 355 282 88 80 95 110 109 93 19 23 319 260 137 118 116 110 105 99 94 72
93 99 268 32 291 162 207 10 143 189 210 325 10 322 15 37 57 71 75 62 61 79 65 51 35 48 92 87 72 91 101 100 59 44 341 22 124 114 112 117 115 102 101 81
162 212 286 311 313 316 185 145 182 218 115 134 169 109 42 61 55 51 57 67 63 87 89 61 75 83 86 82 83 75 97 97 91 56 27 22 89 116 112 113 116 113 111 89
110 296 310 325 344 351 29 144 233 165 110 277 48 153 99 95 100 100 88 74 74 92 91 80 66 77 95 105 117 127 110 109 90 88 71 57 58 67 104 113 115 124 126 121
45 300 313 293 321 344 344 360 45 53 277 276 15 42 83 118 133 114 102 88 79 76 93 109 107 113 131 146 131 105 94 102 85 77 75 75 52 40 83 58 111 141 152 139
199 234 196 228 288 318 55 92 116 131 143 113 30 63 94 108 110 105 118 132 122 126 117 121 124 128 136 120 101 107 122 117 96 103 82 85 100 82 44 57 60 83 114 125
149 174 181 135 278 291 142 136 124 132 158 155 64 114 134 131 145 142 143 151 157 153 138 133 134 138 139 120 125 139 153 127 126 108 118 130 120 121 121 31 64 58 57 85
124 118 68 285 262 21 69 67 69 54 58 81 150 100 170 153 149 169 172 163 149 145 138 144 148 155 148 152 145 156 142 140 140 151 129 131 151 133 130 127 120 59 25 40
112 81 125 130 66 96 81 94 125 149 179 142 160 187 203 190 202 207 161 147 138 132 145 162 167 184 172 156 162 163 159 163 162 140 135 161 155 133 123 120 128 126 24 4
131 109 104 84 67 56 82 99 166 237 193 198 205 220 222 212 202 182 166 157 152 171 174 168 186 194 160 158 166 166 173 161 162 164 176 185 186 173 173 173 177 211 213 218
133 123 89 85 100 82 31 322 300 268 248 245 241 230 206 211 218 203 194 181 167 174 176 180 193 183 155 173 178 187 169 163 181 176 193 201 201 211 201 191 194 205 228 210
81 62 64 101 88 87 67 36 340 307 265 261 252 222 210 201 208 200 197 179 177 173 193 199 180 167 173 177 169 162 169 160 168 196 191 181 204 197 206 215 209 208 219 207
64 69 65 67 57 52 18 4 1 324 308 283 259 229 223 224 206 194 171 167 185 184 207 174 158 137 169 191 162 163 162 175 180 161 175 183 181 194 231 226 224 234 195 189
28 27 12 36 26 58 343 341 332 325 311 325 241 211 231 231 189 171 173 187 187 193 160 153 142 155 169 191 174 177 178 158 144 147 137 146 140 147 138 111 131 121 126 135
318 320 308 302 290 283 281 282 297 296 299 307 257 231 228 194 185 168 185 193 211 178 162 156 160 160 149 150 143 142 134 130 124 126 133 129 118 110 99 79 71 85 92 96
289 292 289 284 273 271 260 262 268 272 279 285 281 231 191 192 189 180 198 202 162 127 103 128 136 137 135 118 117 108 109 113 113 119 117 110 108 116 113 106 100 94 92 85
277 268 267 267 266 267 274 263 258 250 273 290 289 242 210 190 184 176 195 189 150 140 137 155 175 137 134 121 113 108 114 115 118 120 119 118 122 117 115 108 104 104 99 95
275 276 271 268 271 253 276 289 260 254 296 317 313 306 191 173 102 6 112 146 136 151 150 165 156 136 126 120 123 124 118 118 119 120 111 99 108 103 105 109 104 101 101 99
270 270 279 289 283 275 256 53 46 45 13 343 1 5 12 348 169 165 118 100 125 137 120 132 122 108 103 104 102 106 107 97 100 102 98 115 110 108 109 114 121 133 129 129
318 304 336 32 27 54 81 68 43 279 164 46 16 34 22 49 90 102 94 89 82 100 110 118 104 93 97 104 111 112 115 133 136 123 123 119 115 121 133 133 136 140 141 139
35 35 47 51 43 44 54 67 85 7 354 49 48 50 66 86 90 94 96 88 83 82 92 76 72 79 108 108 104 116 121 122 114 126 128 130 133 141 146 149 150 149 146 146